Location: Carthage
(33.8834°N, 106.6595°W)
Time: 03:43:50
(UTC+00:00)

Cosmos 2322 Rocket - Pass Details

Date: 20 May 2026
Orbit: 831 x 850 km, 71.0° (Epoch: 9 June)

Event Time Altitude Azimuth Distance (km) Brightness Sun altitude
Rises 04:05:50 0° 341° (NNW) 3,406 6.5 -21.6°
Reaches altitude 10° 04:08:17 10° 343° (NNW) 2,471 5.5 -21.9°
Maximum altitude 04:13:58 76° 68° (ENE) 875 2.1 -22.7°
Enters shadow 04:15:19 53° 139° (SE) 1,036 2.2 -22.9°
